| time (UTC) | temp F | wind direction | speed MPH | gust MPH | rain 1hr in | rain 24hr in | rain mn in | humidity % | barometer mb |
| 20260507221543 | 60 | 283 | 6.0 | 16.0 | 0.00 | 0.00 | 0.00 | 66 | 1019.8 |
| 20260507220040 | 60 | 284 | 8.0 | 15.0 | 0.00 | 0.00 | 0.00 | 67 | 1019.9 |
| 20260507214540 | 60 | 269 | 4.0 | 13.0 | 0.00 | 0.00 | 0.00 | 68 | 1020.0 |
| 20260507213041 | 60 | 292 | 5.0 | 14.0 | 0.00 | 0.00 | 0.00 | 66 | 1020.0 |
| 20260507211554 | 60 | 259 | 6.0 | 13.0 | 0.00 | 0.00 | 0.00 | 65 | 1019.9 |
| 20260507210043 | 60 | 314 | 7.0 | 16.0 | 0.00 | 0.00 | 0.00 | 65 | 1019.9 |
| 20260507204543 | 60 | 26 | 7.0 | 14.0 | 0.00 | 0.00 | 0.00 | 65 | 1019.9 |
| 20260507203042 | 60 | 297 | 5.0 | 15.0 | 0.00 | 0.00 | 0.00 | 66 | 1020.0 |
| 20260507201541 | 60 | 257 | 6.0 | 12.0 | 0.00 | 0.00 | 0.00 | 66 | 1020.0 |
| 20260507200059 | 60 | 315 | 5.0 | 11.0 | 0.00 | 0.00 | 0.00 | 65 | 1020.0 |
| 20260507194543 | 61 | 336 | 5.0 | 10.0 | 0.00 | 0.00 | 0.00 | 66 | 1020.2 |
| 20260507193043 | 61 | 310 | 3.0 | 10.0 | 0.00 | 0.00 | 0.00 | 65 | 1020.4 |
| 20260507191549 | 61 | 286 | 4.0 | 11.0 | 0.00 | 0.00 | 0.00 | 65 | 1020.5 |
| 20260507190042 | 62 | 360 | 2.0 | 8.0 | 0.00 | 0.00 | 0.00 | 64 | 1020.3 |
| 20260507184540 | 61 | 360 | 2.0 | 4.0 | 0.00 | 0.00 | 0.00 | 66 | 1020.4 |
| 20260507183036 | 60 | 0 | 1.0 | 4.0 | 0.00 | 0.00 | 0.00 | 68 | 1020.5 |
| 20260507181544 | 58 | 320 | 1.0 | 5.0 | 0.00 | 0.00 | 0.00 | 69 | 1020.7 |
| 20260507180046 | 58 | 277 | 2.0 | 6.0 | 0.00 | 0.00 | 0.00 | 69 | 1020.8 |
| 20260507174542 | 59 | 272 | 2.0 | 6.0 | 0.00 | 0.00 | 0.00 | 68 | 1020.9 |
| 20260507173041 | 57 | 277 | 0.0 | 4.0 | 0.00 | 0.00 | 0.00 | 72 | 1021.2 |
| 20260507171537 | 55 | 350 | 0.0 | 5.0 | 0.00 | 0.00 | 0.00 | 74 | 1021.3 |
| 20260507170037 | 54 | 293 | 1.0 | 4.0 | 0.00 | 0.00 | 0.00 | 74 | 1021.4 |
| 20260507164542 | 54 | 360 | 1.0 | 5.0 | 0.00 | 0.00 | 0.00 | 74 | 1021.4 |
| 20260507163042 | 54 | 273 | 1.0 | 3.0 | 0.00 | 0.00 | 0.00 | 75 | 1021.3 |
| 20260507161541 | 53 | 267 | 1.0 | 4.0 | 0.00 | 0.00 | 0.00 | 77 | 1021.5 |
| 20260507160041 | 52 | 5 | 1.0 | 3.0 | 0.00 | 0.00 | 0.00 | 80 | 1021.4 |
| 20260507154538 | 51 | 296 | 1.0 | 4.0 | 0.00 | 0.00 | 0.00 | 81 | 1021.5 |
| 20260507153036 | 51 | 352 | 1.0 | 4.0 | 0.00 | 0.00 | 0.00 | 82 | 1021.5 |
| 20260507151545 | 51 | 0 | 1.0 | 2.0 | 0.00 | 0.00 | 0.00 | 84 | 1021.3 |
| 20260507150043 | 50 | 0 | 0.0 | 2.0 | 0.00 | 0.00 | 0.00 | 85 | 1021.4 |
| 20260507144541 | 50 | 0 | 0.0 | 4.0 | 0.00 | 0.00 | 0.00 | 86 | 1021.3 |
| 20260507143041 | 49 | 0 | 1.0 | 4.0 | 0.00 | 0.00 | 0.00 | 85 | 1021.2 |
| 20260507141538 | 48 | 0 | 0.0 | 4.0 | 0.00 | 0.00 | 0.00 | 86 | 1021.3 |
| 20260507140056 | 48 | 0 | 1.0 | 5.0 | 0.00 | 0.00 | 0.00 | 87 | 1021.2 |
| 20260507134544 | 47 | 0 | 1.0 | 3.0 | 0.00 | 0.00 | 0.00 | 88 | 1021.2 |
| 20260507133042 | 47 | 294 | 1.0 | 3.0 | 0.00 | 0.00 | 0.00 | 89 | 1021.1 |
| 20260507131545 | 47 | 0 | 0.0 | 2.0 | 0.00 | 0.00 | 0.00 | 89 | 1021.0 |
| 20260507130040 | 47 | 347 | 0.0 | 3.0 | 0.00 | 0.00 | 0.00 | 88 | 1020.9 |
| 20260507124538 | 48 | 340 | 0.0 | 3.0 | 0.00 | 0.00 | 0.00 | 87 | 1020.9 |
| 20260507123058 | 49 | 0 | 0.0 | 2.0 | 0.00 | 0.00 | 0.00 | 87 | 1021.0 |
| 20260507121544 | 49 | 347 | 1.0 | 3.0 | 0.00 | 0.00 | 0.00 | 86 | 1021.1 |
| 20260507120043 | 50 | 0 | 1.0 | 3.0 | 0.00 | 0.00 | 0.00 | 86 | 1021.3 |
| 20260507114541 | 50 | 0 | 0.0 | 2.0 | 0.00 | 0.00 | 0.00 | 86 | 1021.4 |
| 20260507113042 | 51 | 331 | 0.0 | 2.0 | 0.00 | 0.00 | 0.00 | 87 | 1021.5 |
| 20260507111544 | 51 | 0 | 0.0 | 2.0 | 0.00 | 0.00 | 0.00 | 86 | 1021.5 |
| 20260507110037 | 51 | 0 | 0.0 | 1.0 | 0.00 | 0.00 | 0.00 | 85 | 1021.4 |
| 20260507104542 | 51 | 360 | 0.0 | 3.0 | 0.00 | 0.00 | 0.00 | 85 | 1021.5 |
| 20260507103042 | 51 | 0 | 0.0 | 2.0 | 0.00 | 0.00 | 0.00 | 85 | 1021.6 |
| 20260507101558 | 52 | 360 | 1.0 | 3.0 | 0.00 | 0.00 | 0.00 | 84 | 1021.7 |
| 20260507100042 | 52 | 0 | 0.0 | 3.0 | 0.00 | 0.00 | 0.00 | 84 | 1021.8 |
| 20260507094551 | 52 | 0 | 0.0 | 4.0 | 0.00 | 0.00 | 0.00 | 84 | 1022.0 |
| 20260507093036 | 52 | 336 | 0.0 | 2.0 | 0.00 | 0.00 | 0.00 | 83 | 1022.0 |
| 20260507091555 | 52 | 0 | 1.0 | 3.0 | 0.00 | 0.00 | 0.00 | 83 | 1022.1 |
| 20260507084541 | 53 | 0 | 0.0 | 2.0 | 0.00 | 0.00 | 0.00 | 84 | 1022.4 |
| 20260507083042 | 53 | 0 | 0.0 | 2.0 | 0.00 | 0.00 | 0.00 | 84 | 1022.4 |
| 20260507081550 | 53 | 0 | 0.0 | 2.0 | 0.00 | 0.00 | 0.00 | 84 | 1022.4 |
| 20260507080045 | 53 | 5 | 1.0 | 5.0 | 0.00 | 0.00 | 0.00 | 85 | 1022.4 |
| 20260507074544 | 53 | 0 | 0.0 | 2.0 | 0.00 | 0.00 | 0.00 | 86 | 1022.4 |
| 20260507073056 | 53 | 360 | 0.0 | 4.0 | 0.00 | 0.00 | 0.00 | 85 | 1022.3 |
| 20260507071542 | 53 | 0 | 0.0 | 2.0 | 0.00 | 0.00 | 0.00 | 84 | 1022.3 |
| 20260507070105 | 53 | 0 | 0.0 | 1.0 | 0.00 | 0.00 | 0.00 | 83 | 1022.4 |
| 20260507064546 | 54 | 335 | 0.0 | 2.0 | 0.00 | 0.00 | 0.00 | 82 | 1022.3 |
| 20260507063036 | 54 | 0 | 0.0 | 4.0 | 0.00 | 0.00 | 0.00 | 81 | 1022.3 |
| 20260507061543 | 54 | 291 | 0.0 | 4.0 | 0.00 | 0.00 | 0.00 | 81 | 1022.5 |
| 20260507060043 | 54 | 308 | 0.0 | 5.0 | 0.00 | 0.00 | 0.00 | 82 | 1022.6 |
| 20260507054546 | 53 | 348 | 1.0 | 6.0 | 0.00 | 0.00 | 0.00 | 83 | 1022.7 |
| 20260507053043 | 53 | 351 | 1.0 | 6.0 | 0.00 | 0.00 | 0.00 | 86 | 1022.8 |
| 20260507051540 | 54 | 0 | 0.0 | 2.0 | 0.00 | 0.00 | 0.00 | 87 | 1022.7 |
| 20260507050045 | 54 | 0 | 0.0 | 2.0 | 0.00 | 0.00 | 0.00 | 88 | 1022.8 |
| 20260507044547 | 54 | 313 | 1.0 | 4.0 | 0.00 | 0.00 | 0.00 | 88 | 1022.8 |
| 20260507043042 | 54 | 272 | 1.0 | 4.0 | 0.00 | 0.00 | 0.00 | 88 | 1022.8 |
| 20260507041541 | 54 | 0 | 2.0 | 6.0 | 0.00 | 0.00 | 0.00 | 88 | 1022.8 |
| 20260507040041 | 54 | 299 | 2.0 | 4.0 | 0.00 | 0.00 | 0.00 | 87 | 1022.6 |
| 20260507034538 | 54 | 300 | 1.0 | 6.0 | 0.00 | 0.00 | 0.00 | 88 | 1022.7 |
| 20260507033043 | 54 | 275 | 4.0 | 9.0 | 0.00 | 0.00 | 0.00 | 87 | 1022.6 |
| 20260507031543 | 54 | 264 | 3.0 | 10.0 | 0.00 | 0.00 | 0.00 | 87 | 1022.4 |
| 20260507030046 | 54 | 297 | 1.0 | 9.0 | 0.00 | 0.00 | 0.00 | 87 | 1022.2 |
| 20260507024538 | 54 | 5 | 2.0 | 9.0 | 0.00 | 0.00 | 0.00 | 87 | 1022.2 |
| 20260507023042 | 54 | 325 | 3.0 | 9.0 | 0.00 | 0.00 | 0.00 | 87 | 1022.3 |
| 20260507021537 | 55 | 286 | 2.0 | 8.0 | 0.00 | 0.00 | 0.00 | 88 | 1022.2 |
| 20260507020046 | 55 | 279 | 2.0 | 6.0 | 0.00 | 0.00 | 0.00 | 87 | 1022.2 |
| 20260507014553 | 55 | 340 | 1.0 | 8.0 | 0.00 | 0.00 | 0.00 | 87 | 1022.3 |
| 20260507013041 | 55 | 346 | 0.0 | 7.0 | 0.00 | 0.00 | 0.00 | 87 | 1022.4 |
| 20260507011541 | 55 | 0 | 3.0 | 9.0 | 0.00 | 0.00 | 0.00 | 86 | 1022.4 |
| 20260507010042 | 55 | 298 | 4.0 | 8.0 | 0.00 | 0.00 | 0.00 | 86 | 1022.5 |
| 20260507004541 | 55 | 292 | 3.0 | 8.0 | 0.00 | 0.00 | 0.00 | 87 | 1022.5 |
| 20260507003035 | 55 | 282 | 2.0 | 8.0 | 0.00 | 0.00 | 0.00 | 87 | 1022.6 |
| 20260507001543 | 56 | 286 | 2.0 | 7.0 | 0.00 | 0.00 | 0.00 | 86 | 1022.6 |
| 20260507000044 | 56 | 355 | 3.0 | 8.0 | 0.00 | 0.00 | 0.00 | 85 | 1022.6 |
| 20260506234541 | 56 | 299 | 2.0 | 8.0 | 0.00 | 0.00 | 0.00 | 85 | 1022.6 |
| 20260506233040 | 56 | 315 | 3.0 | 9.0 | 0.00 | 0.00 | 0.00 | 85 | 1022.6 |
| 20260506231537 | 56 | 329 | 2.0 | 8.0 | 0.00 | 0.00 | 0.00 | 84 | 1022.7 |
| 20260506230036 | 57 | 315 | 2.0 | 7.0 | 0.00 | 0.00 | 0.00 | 83 | 1022.8 |
| 20260506224543 | 57 | 275 | 1.0 | 5.0 | 0.00 | 0.00 | 0.00 | 83 | 1022.9 |
| 20260506223041 | 57 | 313 | 1.0 | 6.0 | 0.00 | 0.00 | 0.00 | 85 | 1023.0 |